Location: Newark
(43.5831°N, 21.3381°E)
Time: 22:56:21
(UTC+00:00)

Envisat - Pass Details

Date: 20 December 2019
Orbit: 764 x 766 km, 98.1° (Epoch: 21 January)

Event Time Altitude Azimuth Distance (km) Brightness Sun altitude
Rises 05:07:56 0° 16° (NNE) 3,242 6.2 -9.8°
Reaches altitude 10° 05:10:17 10° 20° (NNE) 2,311 5.5 -9.4°
Maximum altitude 05:15:19 60° 101° (E) 872 3.7 -8.6°
Drops below altitude 10° 05:20:19 10° 181° (S) 2,293 5.8 -7.8°
Sets 05:22:39 0° 185° (S) 3,215 6.5 -7.4°
